Temp
42 43 44 45 45 46 45 44 44 44 44 44 44 44 44 44 44 42 42 43 42 42 42 42 42 41 41 40 40 40 40 39 40 40 39 38 39 38 37 38 38 40
41 41 42 42 42 43 44 43 43 43 44 44 45 45 44 44 43 42 42 42 42 42 42 41 41 41 40 40 39 39 39 39 39 38 38 37 38 38 38 38 38 39
40 40 40 41 42 41 42 42 42 42 43 43 43 44 43 43 42 42 42 41 41 41 41 41 41 40 40 40 39 39 39 38 38 38 38 37 38 37 38 38 38 36
39 39 40 40 41 41 41 41 41 41 41 41 42 42 42 41 42 41 41 40 41 40 40 40 40 40 40 39 39 39 39 39 39 38 37 38 38 37 37 37 37 36
39 39 40 40 40 40 40 40 41 40 40 42 41 41 41 40 40 40 40 40 40 40 40 39 40 39 39 39 38 38 39 38 39 38 37 37 37 36 37 36 35 35
38 39 40 40 40 40 41 40 41 41 40 40 41 41 41 40 41 40 40 39 40 40 40 39 39 39 38 38 38 38 38 38 38 36 36 37 36 36 36 35 35 35
38 39 39 39 39 40 40 41 41 40 41 42 41 40 41 40 40 40 40 40 40 39 40 39 38 38 38 38 38 38 38 38 37 35 36 37 36 34 35 34 35 35
38 38 38 39 39 39 39 40 40 41 41 41 40 41 40 40 40 40 40 40 40 39 40 39 39 38 38 38 37 37 37 38 37 35 36 36 36 33 34 33 34 34
37 37 38 38 38 38 39 40 40 41 41 40 41 41 40 40 41 40 40 40 39 39 39 39 39 38 38 37 37 37 37 37 37 35 35 36 34 34 33 33 33 33
37 37 37 37 37 38 39 40 40 41 40 40 40 41 40 39 40 40 40 39 39 39 39 39 39 38 38 38 37 38 38 38 37 36 36 36 35 34 33 33 32 32
39 39 38 38 38 38 39 40 40 41 40 40 40 40 40 40 39 40 39 39 38 39 39 39 39 38 38 37 38 38 38 38 38 37 36 37 37 36 34 33 32 32
39 39 39 39 39 39 39 39 40 40 40 40 40 40 40 40 39 38 39 39 39 39 39 39 39 39 38 38 37 38 38 38 38 37 36 36 37 36 35 34 33 33
38 38 38 38 39 39 40 40 40 39 39 38 38 38 39 38 38 38 37 38 39 38 38 39 39 38 38 38 38 37 37 37 37 37 36 36 36 36 36 35 34 34
38 38 38 38 38 38 38 39 39 39 39 39 38 38 37 38 38 37 38 38 38 38 39 39 39 38 38 38 38 37 37 37 37 36 36 36 36 36 36 35 34 34
38 38 38 38 37 37 37 37 38 38 38 38 38 37 38 38 38 38 37 37 37 38 38 38 38 38 38 38 37 37 37 36 36 36 35 35 35 35 35 34 34 34
37 37 36 36 36 36 36 36 36 36 36 35 36 36 37 37 37 37 37 37 36 37 37 38 38 38 37 37 37 37 36 35 34 34 34 35 34 33 33 33 33 33
36 36 36 35 35 35 34 34 34 34 34 34 34 34 35 35 35 36 36 37 36 36 36 37 37 38 37 38 38 38 36 35 33 33 33 34 34 33 32 32 32 32
35 35 34 34 34 33 33 33 33 33 33 33 33 34 34 33 33 34 36 36 36 36 36 37 37 37 38 38 39 39 37 35 33 32 32 33 33 33 33 32 31 31
35 34 33 33 33 33 32 31 31 31 32 32 32 34 33 32 33 33 34 35 35 35 36 36 36 38 38 38 38 39 38 36 34 32 32 31 33 33 32 32 31 30
34 33 32 32 33 32 32 30 30 30 31 31 31 32 32 32 32 32 32 33 34 34 35 36 36 37 38 38 38 38 39 37 34 32 32 31 32 32 32 32 30 29
33 32 32 32 32 32 31 31 31 30 29 30 31 31 31 31 32 31 31 31 32 33 33 34 35 36 37 38 38 38 39 38 34 33 32 31 32 32 32 31 31 30
32 31 31 31 32 31 31 31 31 31 30 30 29 30 30 30 30 30 30 30 31 31 31 31 33 36 37 37 38 38 39 36 34 32 31 30 30 31 31 31 31 30
30 30 29 30 31 31 31 30 31 31 31 30 28 29 29 29 28 29 30 30 29 29 29 30 31 34 36 37 37 38 37 35 34 32 31 29 29 30 30 30 30 29
28 28 28 30 31 30 30 31 31 31 30 30 28 28 28 28 28 28 28 29 28 28 29 29 30 32 35 36 37 38 37 34 34 32 30 29 28 29 29 28 29 28
26 27 28 30 30 29 29 28 29 29 30 29 28 27 27 28 27 27 27 27 27 28 29 29 29 30 34 35 36 37 37 35 34 31 29 28 27 26 27 27 27 28
24 25 28 29 28 27 27 28 28 28 28 29 28 27 26 27 26 26 25 26 27 26 26 28 28 29 30 34 35 36 37 35 33 30 28 27 26 25 24 24 25 25
MSLP
1011.52 1011.72 1011.88 1011.96 1012.00 1012.04 1012.20 1012.64 1012.84 1012.88 1012.88 1013.00 1013.00 1013.08 1013.24 1013.40 1013.88 1014.08 1014.16 1014.52 1014.76 1015.04 1015.32 1015.60 1015.96 1016.32 1016.60 1016.88 1017.20 1017.56 1017.80 1017.96 1018.20 1018.44 1018.76 1019.08 1019.24 1019.48 1019.72 1019.88 1019.96 1019.88
1011.36 1011.64 1011.84 1012.00 1012.08 1012.20 1012.24 1012.24 1012.36 1012.56 1012.64 1012.76 1012.76 1012.88 1013.08 1013.36 1013.52 1013.84 1014.12 1014.28 1014.48 1014.68 1014.92 1015.24 1015.48 1015.64 1015.96 1016.28 1016.60 1016.96 1017.28 1017.60 1017.76 1018.08 1018.40 1018.60 1018.68 1019.04 1019.12 1019.40 1019.56 1019.84
1011.36 1011.48 1011.56 1011.60 1011.76 1012.00 1012.12 1012.24 1012.32 1012.32 1012.32 1012.40 1012.68 1012.92 1013.08 1013.28 1013.44 1013.60 1013.84 1014.08 1014.36 1014.60 1014.84 1014.96 1015.24 1015.36 1015.52 1015.72 1016.04 1016.28 1016.48 1016.84 1017.16 1017.56 1017.88 1018.04 1018.24 1018.52 1018.56 1018.96 1019.32 1019.48
1011.24 1011.36 1011.44 1011.52 1011.64 1011.72 1011.88 1012.00 1012.04 1012.12 1012.24 1012.40 1012.28 1012.24 1012.40 1012.72 1013.12 1013.52 1013.76 1013.96 1014.08 1014.28 1014.52 1014.84 1015.00 1015.28 1015.44 1015.60 1015.84 1015.96 1015.96 1016.28 1016.44 1017.04 1017.40 1017.64 1017.84 1018.00 1018.28 1018.60 1018.88 1019.28
1011.00 1010.88 1010.96 1011.08 1011.28 1011.48 1011.64 1011.72 1011.68 1011.84 1011.96 1011.84 1012.04 1012.16 1012.28 1012.44 1012.64 1012.80 1013.16 1013.60 1013.96 1014.16 1014.40 1014.64 1014.92 1015.16 1015.40 1015.56 1015.68 1015.76 1015.88 1016.00 1016.32 1016.68 1016.96 1017.08 1017.36 1017.72 1017.92 1018.28 1018.52 1018.76
1011.04 1010.92 1010.84 1010.92 1010.96 1011.04 1011.12 1011.20 1011.28 1011.44 1011.60 1011.84 1011.72 1011.92 1012.04 1012.24 1012.32 1012.44 1012.68 1012.88 1013.04 1013.40 1013.84 1014.24 1014.48 1014.72 1015.12 1015.32 1015.60 1015.52 1015.52 1015.72 1015.80 1016.20 1016.40 1016.52 1016.84 1017.32 1017.56 1017.84 1018.08 1018.32
1011.08 1010.96 1010.80 1010.84 1010.88 1010.96 1010.84 1010.76 1010.84 1011.00 1011.12 1011.20 1011.56 1011.72 1011.88 1011.96 1012.00 1012.12 1012.32 1012.48 1012.76 1012.84 1012.84 1013.12 1013.68 1014.20 1014.56 1014.92 1015.20 1015.24 1015.28 1015.28 1015.52 1015.80 1015.80 1015.88 1016.28 1016.84 1017.16 1017.44 1017.52 1017.72
1011.16 1010.96 1010.88 1010.84 1010.88 1010.88 1010.84 1010.80 1010.84 1010.80 1010.80 1011.04 1011.16 1011.20 1011.48 1011.48 1011.64 1011.80 1011.96 1012.16 1012.32 1012.40 1012.64 1012.88 1013.08 1013.32 1013.84 1014.32 1014.48 1014.64 1014.76 1014.92 1015.04 1015.20 1015.24 1015.28 1015.68 1016.12 1016.52 1016.84 1017.12 1017.44
1011.08 1010.84 1010.80 1010.80 1010.84 1010.80 1010.76 1010.68 1010.56 1010.44 1010.56 1010.68 1010.68 1010.80 1010.96 1011.04 1011.16 1011.28 1011.44 1011.68 1011.76 1011.92 1012.24 1012.48 1012.72 1013.04 1013.24 1013.48 1013.68 1013.92 1014.08 1014.28 1014.40 1014.68 1014.68 1014.72 1015.04 1015.24 1015.80 1016.32 1016.92 1017.04
1010.96 1010.84 1010.84 1010.76 1010.72 1010.64 1010.52 1010.44 1010.32 1010.24 1010.32 1010.40 1010.40 1010.52 1010.56 1010.68 1010.80 1010.88 1011.12 1011.24 1011.32 1011.52 1011.72 1011.92 1012.24 1012.44 1012.72 1013.00 1013.12 1013.32 1013.56 1013.80 1014.08 1014.28 1014.32 1014.28 1014.36 1014.68 1015.16 1015.64 1015.80 1016.28
1011.04 1010.88 1010.80 1010.64 1010.60 1010.44 1010.32 1010.20 1010.16 1010.12 1010.16 1010.16 1010.20 1010.24 1010.24 1010.40 1010.48 1010.64 1010.72 1010.80 1010.84 1010.92 1011.08 1011.24 1011.40 1011.72 1012.00 1012.20 1012.48 1012.76 1013.04 1013.16 1013.44 1013.80 1014.04 1013.92 1013.88 1014.04 1014.36 1014.72 1015.08 1015.16
1011.28 1011.04 1010.88 1010.68 1010.40 1010.24 1010.08 1010.00 1009.96 1009.92 1009.88 1009.92 1009.96 1009.84 1009.92 1010.04 1010.12 1010.24 1010.16 1010.12 1010.20 1010.28 1010.36 1010.48 1010.80 1011.20 1011.40 1011.48 1011.68 1012.00 1012.28 1012.56 1012.80 1013.08 1013.36 1013.60 1013.64 1013.72 1013.88 1014.08 1014.24 1014.48
1011.64 1011.44 1011.20 1010.96 1010.68 1010.40 1010.12 1009.88 1009.76 1009.72 1009.76 1009.72 1009.68 1009.60 1009.64 1009.76 1009.84 1009.84 1009.84 1009.84 1009.76 1009.92 1009.92 1010.04 1010.32 1010.52 1010.68 1010.92 1011.24 1011.52 1011.68 1011.96 1012.24 1012.48 1012.72 1013.00 1013.12 1013.24 1013.44 1013.72 1013.88 1014.08
1012.00 1011.72 1011.48 1011.24 1010.96 1010.60 1010.28 1010.00 1009.80 1009.68 1009.60 1009.48 1009.48 1009.48 1009.44 1009.40 1009.36 1009.44 1009.40 1009.52 1009.44 1009.52 1009.52 1009.76 1009.92 1010.00 1010.08 1010.28 1010.68 1010.96 1011.20 1011.40 1011.64 1011.96 1012.20 1012.32 1012.48 1012.72 1012.88 1013.04 1013.20 1013.40
1012.32 1012.00 1011.64 1011.28 1010.96 1010.68 1010.40 1010.08 1009.76 1009.48 1009.36 1009.28 1009.28 1009.20 1009.12 1009.08 1009.04 1009.04 1009.12 1009.12 1009.16 1009.20 1009.24 1009.36 1009.44 1009.32 1009.32 1009.60 1010.08 1010.56 1010.76 1010.92 1011.04 1011.40 1011.76 1012.04 1012.20 1012.36 1012.44 1012.56 1012.76 1012.88
1012.40 1012.16 1011.88 1011.56 1011.16 1010.76 1010.48 1010.20 1009.92 1009.60 1009.32 1009.12 1008.96 1008.88 1008.84 1008.76 1008.76 1008.72 1008.72 1008.72 1008.88 1008.92 1009.00 1009.00 1008.88 1008.72 1008.76 1009.00 1009.28 1009.56 1010.04 1010.36 1010.60 1010.76 1011.12 1011.52 1011.88 1012.08 1012.16 1012.20 1012.28 1012.52
1012.40 1012.20 1012.00 1011.68 1011.24 1010.88 1010.48 1010.16 1009.84 1009.60 1009.36 1009.12 1008.92 1008.76 1008.64 1008.56 1008.52 1008.48 1008.48 1008.48 1008.44 1008.44 1008.52 1008.48 1008.32 1008.28 1008.48 1008.68 1008.80 1009.08 1009.48 1009.88 1010.12 1010.28 1010.60 1010.92 1011.24 1011.48 1011.60 1011.68 1011.88 1012.08
1012.24 1012.08 1011.96 1011.64 1011.32 1011.00 1010.64 1010.32 1009.96 1009.60 1009.24 1008.92 1008.64 1008.44 1008.36 1008.40 1008.48 1008.40 1008.24 1008.16 1008.16 1008.16 1008.08 1008.00 1007.96 1008.00 1008.20 1008.28 1008.40 1008.60 1008.88 1009.32 1009.72 1009.92 1010.08 1010.32 1010.52 1010.80 1011.00 1011.28 1011.48 1011.68
1012.28 1012.12 1011.88 1011.64 1011.44 1011.24 1011.04 1010.68 1010.32 1009.88 1009.44 1009.04 1008.68 1008.44 1008.32 1008.28 1008.16 1008.16 1008.08 1007.96 1007.92 1007.80 1007.72 1007.60 1007.60 1007.60 1007.80 1007.88 1008.00 1008.12 1008.32 1008.80 1009.20 1009.40 1009.60 1009.72 1009.84 1010.12 1010.44 1010.72 1011.08 1011.36
1012.36 1012.12 1011.80 1011.56 1011.32 1011.08 1010.84 1010.64 1010.44 1010.16 1009.80 1009.48 1009.04 1008.64 1008.40 1008.16 1008.04 1008.00 1007.84 1007.76 1007.64 1007.48 1007.36 1007.24 1007.20 1007.36 1007.56 1007.60 1007.64 1007.72 1007.88 1008.20 1008.56 1008.88 1009.04 1009.16 1009.28 1009.44 1009.72 1010.00 1010.36 1010.68
1012.28 1012.04 1011.76 1011.44 1011.16 1010.88 1010.64 1010.44 1010.24 1010.04 1009.84 1009.48 1009.20 1008.80 1008.40 1008.08 1007.84 1007.72 1007.56 1007.44 1007.36 1007.24 1007.08 1006.88 1006.84 1007.08 1007.24 1007.24 1007.32 1007.40 1007.52 1007.72 1008.00 1008.32 1008.56 1008.72 1008.88 1008.96 1009.08 1009.24 1009.60 1010.04
1012.24 1011.96 1011.68 1011.36 1011.00 1010.68 1010.44 1010.16 1009.96 1009.84 1009.64 1009.32 1009.12 1008.76 1008.44 1008.16 1007.88 1007.80 1007.56 1007.28 1007.04 1006.88 1006.80 1006.56 1006.52 1006.72 1006.84 1006.88 1006.96 1007.04 1007.20 1007.36 1007.48 1007.80 1008.08 1008.32 1008.52 1008.64 1008.72 1008.84 1009.12 1009.52
1012.20 1011.92 1011.52 1011.12 1010.80 1010.52 1010.28 1010.04 1009.84 1009.56 1009.36 1009.16 1008.96 1008.60 1008.32 1007.96 1007.68 1007.44 1007.28 1007.16 1006.92 1006.76 1006.52 1006.20 1006.16 1006.32 1006.48 1006.56 1006.60 1006.68 1006.80 1006.88 1007.04 1007.40 1007.68 1007.92 1008.04 1008.24 1008.44 1008.56 1008.80 1009.16
1012.48 1012.16 1011.56 1010.84 1010.40 1010.24 1010.00 1009.76 1009.56 1009.36 1009.16 1008.96 1008.84 1008.36 1008.08 1007.76 1007.56 1007.36 1007.12 1006.96 1006.76 1006.48 1006.24 1005.96 1005.68 1005.84 1006.08 1006.16 1006.24 1006.28 1006.28 1006.40 1006.56 1006.88 1007.16 1007.40 1007.68 1008.00 1008.24 1008.44 1008.64 1009.00
1012.72 1012.32 1011.60 1010.76 1010.28 1010.00 1009.84 1009.56 1009.24 1009.04 1008.80 1008.72 1008.64 1008.36 1008.00 1007.68 1007.52 1007.32 1006.96 1006.72 1006.48 1006.20 1005.88 1005.72 1005.40 1005.40 1005.60 1005.68 1005.80 1005.88 1005.92 1005.96 1006.08 1006.40 1006.76 1006.96 1007.40 1007.88 1008.20 1008.40 1008.64 1008.84
1012.84 1012.36 1011.48 1010.88 1010.52 1010.12 1009.84 1009.52 1009.08 1008.72 1008.48 1008.32 1008.04 1007.92 1007.68 1007.36 1007.20 1007.00 1006.72 1006.32 1006.12 1005.92 1005.60 1005.36 1005.20 1005.12 1005.24 1005.28 1005.32 1005.36 1005.36 1005.44 1005.60 1005.88 1006.04 1006.52 1007.16 1007.64 1008.08 1008.36 1008.52 1008.68
Wind_Speed
5 5 6 5 5 5 5 6 5 6 6 6 8 8 9 8 7 10 11 9 11 11 10 10 10 10 9 9 9 8 9 10 8 8 10 9 9 10 9 10 9 8
6 5 5 4 4 4 5 6 8 8 8 7 6 6 6 7 9 9 10 10 10 10 10 10 10 11 10 10 10 10 9 9 11 8 10 12 10 10 10 11 10 7
5 5 6 7 6 6 6 6 7 8 9 9 7 6 6 7 8 9 9 10 9 9 9 10 10 10 10 10 10 11 10 10 11 10 10 11 9 10 9 9 8 10
5 6 6 6 6 6 6 6 7 7 7 7 10 10 9 9 10 10 10 11 10 10 9 9 10 8 9 10 9 9 9 10 9 9 10 8 9 9 9 8 8 7
6 7 7 7 6 6 6 7 8 8 9 10 8 9 9 9 10 9 10 12 11 10 8 10 8 9 8 8 9 9 9 9 9 10 10 10 9 9 9 9 10 10
6 6 6 7 7 7 8 9 9 9 9 9 11 8 9 9 11 12 12 12 11 11 10 9 10 9 9 9 8 10 9 9 10 11 11 11 10 9 8 9 10 11
7 7 7 6 7 8 9 9 9 9 9 10 7 9 8 9 10 11 11 12 11 13 12 11 11 11 9 9 10 10 10 10 9 12 13 11 10 11 9 10 11 11
7 6 6 6 7 8 9 9 9 9 9 8 10 10 9 10 11 10 11 11 11 11 11 10 10 11 10 10 11 12 11 10 11 12 13 12 11 12 12 9 9 11
7 7 6 7 8 8 9 9 9 9 8 10 10 10 9 9 10 11 11 11 11 10 11 10 11 10 10 11 12 13 12 11 11 11 12 13 13 13 13 10 11 11
9 7 7 7 8 8 9 9 9 8 8 10 10 9 9 8 11 11 10 12 11 11 10 11 11 11 11 11 12 12 13 13 11 10 11 13 12 12 13 13 14 12
12 10 9 9 8 8 9 9 9 9 8 10 9 10 10 8 9 9 10 10 11 11 12 12 12 12 12 12 12 13 14 16 15 13 11 12 11 11 11 14 13 14
13 12 12 12 11 10 10 9 9 8 9 9 9 11 10 10 10 10 12 13 12 14 14 13 12 12 14 16 16 16 15 15 15 15 13 11 11 11 12 13 14 14
13 13 12 11 10 10 10 10 9 8 8 9 9 10 10 10 10 11 11 12 14 13 14 14 14 15 16 16 15 15 15 13 15 14 13 11 12 11 10 11 12 12
13 12 11 11 10 10 10 9 9 8 8 8 8 9 10 11 11 12 12 12 13 12 13 12 13 14 15 12 11 11 12 14 16 15 11 11 11 11 11 12 13 13
10 10 11 12 11 10 10 10 10 10 9 8 8 8 8 10 10 10 11 12 11 12 12 12 13 14 12 11 11 13 14 16 16 15 11 11 11 10 11 11 11 11
9 9 10 11 12 12 11 10 9 9 8 7 9 8 8 9 9 10 11 12 11 12 12 11 13 11 14 19 16 15 15 14 13 15 14 13 13 11 11 11 11 11
8 9 10 11 11 11 10 11 11 9 8 7 6 6 7 8 9 10 10 10 12 12 13 13 12 11 16 18 22 22 15 15 14 14 14 15 15 16 12 12 11 11
10 10 10 11 10 11 12 12 11 11 11 10 9 8 7 5 8 10 10 10 10 11 13 13 13 13 17 20 22 24 20 14 13 13 13 15 15 15 10 9 11 11
10 10 10 10 9 9 9 9 10 11 11 11 11 9 7 7 9 9 10 10 11 12 13 13 13 12 17 20 22 23 24 19 13 13 13 14 15 16 12 10 10 10
10 10 10 10 10 10 9 8 9 9 10 9 9 9 8 8 8 9 9 10 11 12 12 12 13 11 17 20 21 23 24 21 14 14 14 14 16 16 11 11 12 11
9 9 9 10 10 9 9 9 9 9 9 8 7 8 8 9 9 9 9 9 9 10 11 12 11 13 17 20 21 23 25 21 15 14 13 13 12 11 11 10 11 11
9 11 10 9 9 8 9 10 10 10 10 9 7 8 7 7 8 8 10 11 10 10 10 12 11 13 17 19 22 23 25 16 13 14 14 13 13 13 11 8 9 10
11 12 13 11 9 9 9 9 9 10 10 7 8 8 8 8 8 8 8 9 10 10 10 11 11 12 17 19 21 24 19 13 12 12 12 13 13 13 11 9 8 10
11 12 14 13 11 11 11 11 10 8 8 7 8 10 9 9 8 8 9 9 10 11 11 11 11 10 16 19 21 23 19 14 11 12 13 13 12 11 6 5 8 17
11 12 13 12 12 12 12 13 13 11 10 8 8 8 9 9 8 8 9 8 9 11 10 12 11 10 14 18 21 23 19 13 12 11 12 12 9 5 5 4 7 13
11 13 13 11 12 14 13 13 12 12 11 10 10 8 9 8 8 8 11 10 8 9 9 10 11 9 10 18 20 23 25 15 11 11 13 12 8 6 7 7 6 7
Wind_Direction
230 237 243 244 234 220 193 193 206 212 208 205 204 202 204 201 185 188 196 191 196 195 193 191 187 187 192 184 183 184 191 195 195 188 189 183 194 182 186 191 189 193
239 235 246 256 250 234 224 196 199 204 213 212 218 208 207 196 200 192 197 201 199 202 196 194 192 192 185 182 181 185 188 190 197 176 187 187 193 186 193 190 188 180
239 236 231 232 233 237 230 213 205 211 213 211 209 212 212 206 199 199 199 201 202 202 201 200 198 197 193 187 182 190 189 186 194 181 187 193 186 191 192 179 185 183
240 230 238 241 235 234 223 219 216 213 213 210 210 205 196 192 196 199 204 203 205 205 204 200 203 197 199 195 188 198 191 194 191 171 189 191 195 189 185 179 181 182
232 230 222 223 223 220 220 224 225 219 216 220 213 205 202 195 193 190 192 199 204 207 201 205 201 203 198 200 194 197 193 195 183 182 188 192 188 185 185 177 181 186
258 244 240 232 225 219 221 222 223 221 221 220 221 209 209 199 200 200 199 198 197 196 198 201 200 199 195 199 195 206 194 195 188 182 191 193 188 188 178 186 181 188
265 259 250 238 238 230 233 230 225 220 222 223 212 214 202 205 204 204 201 202 199 204 200 191 190 194 192 193 199 204 204 201 185 190 192 196 180 187 187 184 189 186
277 265 257 253 246 242 239 237 234 229 226 219 216 219 200 209 207 204 205 202 203 206 203 202 200 195 187 193 201 202 204 202 200 192 197 192 184 187 185 186 180 183
302 289 273 261 255 253 250 244 241 237 225 226 226 221 210 211 208 207 204 204 207 206 203 202 199 197 195 196 201 202 204 205 203 196 197 191 190 191 183 175 179 188
333 319 302 280 267 262 260 256 251 248 232 232 233 225 217 213 214 210 207 208 210 207 202 202 199 201 199 204 207 205 207 208 205 203 204 205 198 185 180 182 186 179
353 343 332 310 289 278 271 267 262 257 249 240 235 234 227 219 216 209 212 209 210 207 203 205 203 199 202 204 204 208 212 213 210 207 207 209 202 194 186 185 182 189
357 353 346 335 321 311 294 281 271 261 252 245 235 239 233 225 219 215 215 216 215 215 212 211 206 205 209 210 208 208 210 212 212 210 210 208 205 201 193 191 190 188
354 353 347 341 331 317 311 302 291 274 257 250 237 237 235 229 224 224 222 223 223 218 218 214 210 211 213 212 211 209 209 208 210 210 207 206 210 205 198 195 195 190
347 343 345 341 335 328 318 308 299 288 270 259 247 242 237 234 231 227 228 224 226 221 221 216 215 216 215 210 206 202 205 210 210 211 205 207 206 202 200 198 198 195
339 339 338 339 338 336 332 323 316 305 293 277 260 251 243 240 239 235 233 231 229 227 224 218 220 219 214 207 205 208 210 213 211 210 205 208 208 206 203 201 200 200
336 334 336 335 337 339 335 330 321 312 303 293 278 261 254 247 245 239 236 235 232 230 227 224 225 224 219 211 204 207 207 211 211 212 209 207 210 208 208 203 199 197
336 335 334 335 334 332 334 333 331 324 312 294 279 266 259 252 244 247 242 238 236 233 230 229 230 229 220 212 211 207 203 209 210 212 209 211 212 211 209 200 198 195
336 334 334 330 332 332 331 329 327 326 322 316 308 297 276 261 256 250 249 245 242 240 238 236 236 231 221 218 214 211 205 207 210 213 208 211 211 211 207 199 196 191
330 331 328 326 327 324 319 319 321 320 319 318 312 302 300 282 262 253 251 248 243 245 244 241 242 226 221 219 216 213 209 203 214 211 211 213 212 212 207 199 194 191
321 325 322 320 321 322 321 317 316 312 307 303 299 301 293 282 273 261 255 248 245 245 247 246 242 235 225 222 217 214 211 205 214 211 214 215 213 211 204 196 191 189
321 316 316 315 317 315 318 318 315 308 304 299 298 292 291 286 282 277 263 253 249 245 249 249 245 235 228 225 220 215 213 208 212 214 216 218 215 211 206 196 191 190
323 320 316 313 307 309 312 315 315 311 306 302 296 288 276 272 273 266 268 264 256 251 250 253 249 234 230 227 222 218 213 212 213 213 217 218 217 214 208 195 190 185
325 321 317 311 310 310 310 306 309 308 306 302 291 284 284 279 273 265 262 262 259 252 248 251 251 238 234 228 223 220 213 215 214 214 218 219 219 214 209 202 187 183
321 316 311 310 313 316 314 313 308 300 290 290 289 295 290 276 269 272 263 256 254 253 245 250 249 234 232 232 226 220 213 213 213 214 217 219 219 211 205 198 189 190
314 309 303 303 311 314 317 314 312 308 303 294 273 261 265 275 272 265 264 253 247 246 243 243 250 238 228 233 229 224 219 216 213 212 216 217 209 193 192 183 189 193
307 303 299 304 312 313 314 310 307 307 303 299 291 279 273 264 255 256 261 262 249 243 241 239 245 240 222 228 229 226 221 216 213 210 216 212 200 193 190 202 190 188